Weather History for Providence, RI

Change the Weather History Date:

Wednesday, May 15, 2013

  Actual Average Record
Temperature  
Mean Temperature 52 °F 58 °F  
Max Temperature 66 °F 68 °F 87 °F (2004)
Min Temperature 38 °F 48 °F 36 °F (1947)
Degree Days  
Heating Degree Days 13 7  
Month to date heating degree days 122 139  
Since 1 July heating degree days 5226 5489  
Cooling Degree Days 0 1  
Month to date cooling degree days 0 2  
Year to date cooling degree days 0 4  
Growing Degree Days 2 (Base 50)    
Moisture  
Dew Point 42 °F    
Average Humidity 61    
Maximum Humidity 93    
Minimum Humidity 28    
Precipitation  
Precipitation 0.02 in 0.10 in 1.53 in (1938)
Month to date precipitation 0.80 1.64  
Year to date precipitation 12.38 18.16  
Snow  
Snow 0.00 in 0.00 in 0.00 in (2002)
Month to date snowfall 0.0 0.0  
Since 1 July snowfall 46.3 33.8  
Snow Depth 0.00 in    
Sea Level Pressure  
Sea Level Pressure 29.93 in    
Wind  
Wind Speed 10 mph (SSW)    
Max Wind Speed 25 mph    
Max Gust Speed 33 mph    
Visibility 10 miles    
Events Rain    
T = Trace of Precipitation, MM = Missing Value Source: NWS Daily Summary

Daily Weather History Graph

Daily Weather History Graph

Search for Another Location

Airport:

Trip Planner

Search our weather history database for the weather conditions in past years. The results will help you decide how hot, cold, wet, or windy it might be!

Date:

Astronomy

May. 15, 2013 Rise Set
Actual Time 5:25 AM EDT 7:58 PM EDT
Civil Twilight 4:54 AM EDT 8:30 PM EDT
Nautical Twilight 4:14 AM EDT 9:10 PM EDT
Astronomical Twilight 3:29 AM EDT 9:55 PM EDT
Moon 9:59 AM EDT (5/15) No Moon Set
Length of Visible Light 15h 36m
Length of Day
14h 33m
Waxing Crescent, 26% of the Moon is Illuminated
May 15
Waxing Crescent
May 18
First Quarter
May 25
Full
May 31
Last Quarter
Jun 8
New

Hourly Weather History & Observations

Time (EDT) Temp. Windchill Dew Point Humidity Pressure Visibility Wind Dir Wind Speed Gust Speed Precip Events Conditions
12:51 AM 43.0 °F 38.8 °F 32.0 °F 65% 30.08 in 10.0 mi West 6.9 mph - N/A   Clear
1:51 AM 42.1 °F 37.1 °F 32.0 °F 67% 30.08 in 10.0 mi West 8.1 mph - N/A   Clear
2:51 AM 41.0 °F 36.4 °F 34.0 °F 76% 30.07 in 10.0 mi West 6.9 mph - N/A   Clear
3:51 AM 41.0 °F 37.1 °F 36.0 °F 82% 30.07 in 10.0 mi West 5.8 mph - N/A   Clear
4:51 AM 39.0 °F - 35.1 °F 86% 30.06 in 10.0 mi Calm Calm - N/A   Clear
5:51 AM 41.0 °F - 37.0 °F 86% 30.07 in 10.0 mi Calm Calm - N/A   Partly Cloudy
6:51 AM 45.0 °F 43.5 °F 39.0 °F 80% 30.07 in 10.0 mi WSW 3.5 mph - N/A   Scattered Clouds
7:51 AM 51.1 °F - 42.1 °F 71% 30.07 in 10.0 mi SSW 4.6 mph - N/A   Scattered Clouds
8:51 AM 55.9 °F - 42.1 °F 60% 30.06 in 10.0 mi South 8.1 mph - N/A   Scattered Clouds
9:51 AM 60.1 °F - 43.0 °F 53% 30.03 in 10.0 mi SE 8.1 mph - N/A   Scattered Clouds
10:51 AM 60.1 °F - 32.0 °F 35% 30.03 in 10.0 mi SW 16.1 mph - N/A   Mostly Cloudy
11:51 AM 62.1 °F - 32.0 °F 32% 30.01 in 10.0 mi South 18.4 mph 24.2 mph N/A   Mostly Cloudy
12:51 PM 64.0 °F - 30.0 °F 28% 29.99 in 10.0 mi SSW 19.6 mph 25.3 mph N/A   Mostly Cloudy
1:51 PM 64.0 °F - 33.1 °F 31% 29.95 in 10.0 mi SSW 17.3 mph 26.5 mph N/A   Mostly Cloudy
2:51 PM 61.0 °F - 41.0 °F 48% 29.92 in 10.0 mi South 11.5 mph 25.3 mph N/A   Overcast
3:51 PM 55.9 °F - 46.9 °F 72% 29.90 in 10.0 mi SSE 11.5 mph - 0.00 in Rain Light Rain
4:51 PM 55.9 °F - 51.1 °F 84% 29.84 in 9.0 mi SSE 16.1 mph - 0.02 in Rain Light Rain
5:25 PM 55.4 °F - 51.8 °F 88% 29.80 in 10.0 mi South 15.0 mph 23.0 mph 0.00 in   Overcast
5:51 PM 55.0 °F - 50.0 °F 83% 29.79 in 10.0 mi South 18.4 mph 25.3 mph 0.00 in   Overcast
6:51 PM 55.9 °F - 50.0 °F 80% 29.77 in 10.0 mi South 17.3 mph 24.2 mph N/A   Overcast
7:51 PM 55.9 °F - 51.1 °F 84% 29.76 in 10.0 mi South 12.7 mph - N/A   Overcast
8:51 PM 57.0 °F - 52.0 °F 83% 29.74 in 10.0 mi South 10.4 mph - N/A   Overcast
9:51 PM 55.9 °F - 52.0 °F 87% 29.73 in 10.0 mi South 9.2 mph - N/A   Mostly Cloudy
10:51 PM 55.0 °F - 52.0 °F 89% 29.71 in 9.0 mi SSW 5.8 mph - N/A   Partly Cloudy
11:51 PM 53.1 °F - 51.1 °F 93% 29.71 in 8.0 mi Calm Calm - N/A   Scattered Clouds